Погода в Осове

Украина / Ровненская область     51°28′18″N   26°21′18″E
темп.,
°C
ветер,
м/с
пор.,
м/с
влажн.,
%
обл.,
%
осадки,
мм/ч
давл.,
гПа
погр.,
м
25 мая, ср
ср2500:00+11ю22716 0.0 101516
03:00+10ююв3478100 0.0 101660
06:00+10ююв3777100 0.0 1015147
09:00+14ююв4964100 0.0 1016361
12:00+18ю575596 0.0 1015847
15:00+15ююв4972100 0.0 1015390
18:00+20ююв5860100 0.0 10131151
21:00+15юв378397 0.0 1011140
26 мая, чт
чт2600:00+14ююз31097100 7.5 1010412
03:00+12сз91690100 8.6 1011927
06:00+11зсз7149340 0.0 1012751
09:00+13зсз6983100 0.0 1014762
12:00+18зсз811544 0.1 10131893
15:00+17з7115598 0.2 10131377
18:00+18з7136381 0.3 10121699
21:00+15з613735 0.6 1013734
27 мая, пт
пт2700:00+13зсз6138036 0.1 1014698
03:00+12зюз410905 0.1 1015394
06:00+11зюз51193100 0.2 1014319
09:00+13зюз5982100 0.2 1014533
12:00+15зюз5107059 0.0 1012848
15:00+17зюз71472100 0.3 10091106
18:00+14зсз5993100 1.1 1007631
21:00+10зюз51295100 7.6 1010588
28 мая, сб
сб2800:00+10з61292100 0.1 1010760
03:00+8зюз512940 0.1 1010541
06:00+7зюз511940 0.0 1010484
09:00+11з610660 0.0 10101164
12:00+15з6104796 0.0 10102370
15:00+13з7106382 1.0 10101632
18:00+12з61067100 1.1 10111506
21:00+9з38810 1.4 1011207
29 мая, вс
вс2900:00+6юз410905 0.0 1013190
03:00+7юз4108898 0.0 1013275
06:00+9юз412836 0.0 1013507
09:00+12зюз5873100 0.0 1014718
12:00+14зюз456145 0.1 10141283
15:00+16зюз45647 1.1 10141262
18:00+16юз456510 1.3 10141138
21:00+12ююз338337 2.0 101430